Date String (YYYY-MM-DD hh:mm:ss) UTC,Instrument flags,Ambient pressure (hPa),Sample flow (lpm),Bypass flow (lpm),Sample temperature (°C),Ambient temperature (°C),ASC tube jacket temperature (°C),LED temperature (°C),Box temperature (°C),Sample RH (%),Span deviation,Mass concentration (μg/m³),Mass concentration (μg/m³),Mass concentration (μg/m³)
DateTimeUTC,F1_M11,P_M11,Q1_M11,Q2_M11,T1_M11,T2_M11,T3_M11,T4_M11,T5_M11,U1_M11,ZSPAN_M11,X2_M11,X0_M11,X1_M11
2023-02-18 21:00:00,,0817.2,5.01,0.00,22.1,20.7,00.0,30.9,23.9,05.1,0000.0,0001.60,0003.53,0000.91
2023-02-18 21:01:00,,0817.2,4.99,0.00,22.1,20.8,00.0,30.9,23.9,04.8,0000.0,0001.62,0004.33,0000.91
2023-02-18 21:02:00,,0817.2,5.00,0.00,22.1,20.7,00.0,30.9,23.9,05.4,0000.0,0001.59,0004.56,0000.91
2023-02-18 21:03:00,,0817.1,5.01,0.00,22.1,20.7,00.0,30.9,23.9,05.5,0000.0,0001.62,0004.59,0000.90
2023-02-18 21:04:00,,0817.1,4.96,0.00,22.1,20.7,00.0,30.9,23.9,05.4,0000.0,0001.67,0004.65,0000.90
2023-02-18 21:05:00,,0817.0,5.01,0.00,22.1,20.7,00.0,30.9,23.9,06.2,0000.0,0001.67,0004.63,0000.89
2023-02-18 21:06:00,,0817.1,4.99,0.00,22.1,20.7,00.0,30.9,23.9,05.3,0000.0,0001.64,0004.55,0000.88
2023-02-18 21:07:00,,0817.0,4.94,0.00,22.1,20.7,00.0,30.9,23.9,05.5,0000.0,0001.55,0004.22,0000.87
2023-02-18 21:08:00,,0817.1,5.02,0.00,22.1,20.7,00.0,30.9,23.9,05.2,0000.0,0001.46,0003.78,0000.84
2023-02-18 21:09:00,,0817.1,5.00,0.00,22.1,20.7,00.0,30.9,23.9,05.7,0000.0,0001.43,0003.68,0000.83
2023-02-18 21:10:00,,0817.1,5.01,0.00,22.1,20.7,00.0,30.9,23.9,06.1,0000.0,0001.45,0003.77,0000.83
2023-02-18 21:11:00,,0817.0,5.02,0.00,22.1,20.7,00.0,30.9,23.9,06.0,0000.0,0001.48,0003.96,0000.83
2023-02-18 21:12:00,,0817.1,4.98,0.00,22.1,20.7,00.0,30.9,23.9,05.2,0000.0,0001.52,0003.40,0000.84
2023-02-18 21:13:00,,0817.0,4.98,0.00,22.1,20.7,00.0,30.9,23.9,06.2,0000.0,0001.57,0003.21,0000.84
2023-02-18 21:14:00,,0817.0,5.00,0.00,22.1,20.7,00.0,31.0,23.9,06.1,0000.0,0001.60,0003.76,0000.85
2023-02-18 21:15:00,,0817.0,5.00,0.00,22.1,20.7,00.0,30.9,23.9,05.8,0000.0,0001.59,0004.50,0000.85
2023-02-18 21:16:00,,0816.9,4.99,0.00,22.1,20.7,00.0,30.9,23.8,05.8,0000.0,0001.66,0005.43,0000.85
2023-02-18 21:17:00,,0816.9,4.99,0.00,22.1,20.7,00.0,31.0,23.9,05.9,0000.0,0001.69,0006.14,0000.85
2023-02-18 21:18:00,,0816.9,4.99,0.00,22.1,20.7,00.0,31.0,23.9,06.3,0000.0,0001.71,0006.17,0000.86
2023-02-18 21:19:00,,0816.9,5.00,0.00,22.1,20.7,00.0,31.0,23.9,05.9,0000.0,0001.74,0006.22,0000.87
2023-02-18 21:20:00,,0816.9,4.99,0.00,22.1,20.7,00.0,30.9,23.9,05.7,0000.0,0001.74,0006.21,0000.88
2023-02-18 21:21:00,,0816.9,5.00,0.00,22.1,20.7,00.0,30.9,23.9,05.9,0000.0,0001.75,0006.55,0000.88
2023-02-18 21:22:00,,0816.9,4.99,0.00,22.1,20.7,00.0,30.9,23.9,06.2,0000.0,0001.73,0006.62,0000.88
2023-02-18 21:23:00,,0816.9,5.01,0.00,22.1,20.7,00.0,30.9,23.9,06.3,0000.0,0001.69,0006.29,0000.88
2023-02-18 21:24:00,,0816.9,5.00,0.00,22.1,20.7,00.0,30.9,23.9,06.1,0000.0,0001.61,0006.08,0000.88
2023-02-18 21:25:00,,0816.8,5.01,0.00,22.1,20.7,00.0,30.9,23.9,05.9,0000.0,0001.58,0005.67,0000.89
2023-02-18 21:26:00,,0816.9,5.01,0.00,22.1,20.7,00.0,30.9,23.9,05.8,0000.0,0001.58,0005.47,0000.88
2023-02-18 21:27:00,,0816.9,5.00,0.00,22.1,20.7,00.0,30.9,23.9,06.0,0000.0,0001.51,0005.34,0000.88
2023-02-18 21:28:00,,0817.0,5.00,0.00,22.1,20.8,00.0,30.9,23.9,05.8,0000.0,0001.46,0004.54,0000.87
2023-02-18 21:29:00,,0816.9,5.01,0.00,22.1,20.7,00.0,30.9,23.8,05.8,0000.0,0001.48,0004.59,0000.87
2023-02-18 21:30:00,,0816.8,4.99,0.00,22.1,20.7,00.0,31.0,23.9,06.0,0000.0,0001.51,0004.78,0000.86
2023-02-18 21:31:00,,0816.8,5.00,0.00,22.1,20.7,00.0,30.9,23.9,06.2,0000.0,0001.55,0005.31,0000.86
2023-02-18 21:32:00,,0816.8,5.00,0.00,22.1,20.7,00.0,30.9,23.9,05.5,0000.0,0001.54,0005.42,0000.87
2023-02-18 21:33:00,,0816.8,4.99,0.00,22.1,20.7,00.0,30.9,23.9,05.8,0000.0,0001.55,0005.30,0000.87
2023-02-18 21:34:00,,0816.8,5.01,0.00,22.1,20.7,00.0,30.9,23.9,06.0,0000.0,0001.52,0005.21,0000.88
2023-02-18 21:35:00,,0816.8,5.00,0.00,22.1,20.7,00.0,30.9,23.9,05.1,0000.0,0001.55,0005.29,0000.88
2023-02-18 21:36:00,,0816.7,5.01,0.00,22.1,20.7,00.0,30.9,23.9,05.4,0000.0,0001.55,0005.36,0000.88
2023-02-18 21:37:00,,0816.9,4.97,0.00,22.1,20.7,00.0,30.9,23.9,05.3,0000.0,0001.59,0004.95,0000.88
2023-02-18 21:38:00,,0816.6,4.99,0.00,22.1,20.7,00.0,30.9,23.9,05.9,0000.0,0001.59,0004.12,0000.88
2023-02-18 21:39:00,,0816.7,4.99,0.00,22.1,20.7,00.0,30.9,23.9,06.0,0000.0,0001.62,0004.20,0000.89
2023-02-18 21:40:00,,0816.6,4.99,0.00,22.1,20.7,00.0,30.9,23.9,06.5,0000.0,0001.55,0004.08,0000.88
2023-02-18 21:41:00,,0816.5,5.00,0.00,22.1,20.7,00.0,30.9,23.9,06.0,0000.0,0001.51,0003.92,0000.88
2023-02-18 21:42:00,,0816.6,4.99,0.00,22.1,20.7,00.0,30.9,23.9,05.6,0000.0,0001.48,0003.47,0000.87
2023-02-18 21:43:00,,0816.5,5.00,0.00,22.1,20.7,00.0,30.9,23.9,06.0,0000.0,0001.50,0003.03,0000.87
2023-02-18 21:44:00,,0816.4,4.99,0.00,22.1,20.7,00.0,30.9,23.9,06.2,0000.0,0001.50,0002.97,0000.88
2023-02-18 21:45:00,,0816.4,5.00,0.00,22.1,20.7,00.0,30.9,23.9,06.1,0000.0,0001.53,0003.06,0000.88
2023-02-18 21:46:00,,0816.4,4.98,0.00,22.1,20.7,00.0,30.9,23.9,06.0,0000.0,0001.52,0003.05,0000.87
2023-02-18 21:47:00,,0816.3,5.01,0.00,22.1,20.7,00.0,30.9,23.9,05.9,0000.0,0001.46,0002.88,0000.86
2023-02-18 21:48:00,,0816.4,5.01,0.00,22.0,20.6,00.0,30.9,23.8,05.0,0000.0,0001.43,0002.74,0000.86
2023-02-18 21:49:00,,0816.4,5.00,0.00,22.0,20.6,00.0,30.9,23.8,05.3,0000.0,0001.43,0002.76,0000.86
2023-02-18 21:50:00,,0816.4,5.00,0.00,22.0,20.6,00.0,30.9,23.9,05.0,0000.0,0001.45,0002.74,0000.86
2023-02-18 21:51:00,,0816.4,4.99,0.00,22.0,20.6,00.0,30.9,23.8,05.6,0000.0,0001.46,0002.72,0000.88
2023-02-18 21:52:00,,0816.5,5.02,0.00,22.0,20.6,00.0,30.9,23.8,05.7,0000.0,0001.49,0002.74,0000.88
2023-02-18 21:53:00,,0816.5,4.99,0.00,22.0,20.6,00.0,30.9,23.8,06.0,0000.0,0001.50,0002.67,0000.89
2023-02-18 21:54:00,,0816.5,5.01,0.00,22.0,20.6,00.0,30.9,23.8,05.4,0000.0,0001.51,0002.87,0000.89
2023-02-18 21:55:00,,0816.6,5.00,0.00,22.0,20.6,00.0,30.9,23.8,05.0,0000.0,0001.54,0003.17,0000.89
2023-02-18 21:56:00,,0816.6,4.97,0.00,22.0,20.6,00.0,30.9,23.8,05.6,0000.0,0001.53,0003.13,0000.89
2023-02-18 21:57:00,,0816.6,4.99,0.00,22.0,20.6,00.0,30.9,23.8,05.6,0000.0,0001.51,0003.15,0000.89
2023-02-18 21:58:00,,0816.5,5.01,0.00,22.0,20.6,00.0,30.9,23.8,05.7,0000.0,0001.55,0003.25,0000.91
2023-02-18 21:59:00,,0816.5,5.01,0.00,22.0,20.7,00.0,30.9,23.8,05.3,0000.0,0001.53,0003.26,0000.90
